Temp
9 9 9 9 9 9 9 9 9 9 8 8 8 8 8 8 8 8 8 8 8 7 7 7 7 7 7 7 7 7 7 8 8 8 8 8 8 8 8 8 7 7 7 7 7 7 7 7 7 7 7 7 8 7 7 7 7 7 7 7 7 7 7 7 7 7 7 7 7 8 8 8 8 8 8 8 8 7 7 7 7 7 7 6 6
9 9 9 9 9 9 9 9 9 9 9 9 8 8 8 8 8 8 8 8 8 8 7 7 7 7 7 7 7 7 7 7 8 8 8 8 8 8 8 8 8 7 7 7 7 7 7 7 7 7 7 7 7 7 7 7 7 7 7 7 7 7 7 7 7 7 7 7 7 8 8 7 7 7 8 8 7 7 7 7 7 7 7 7 6
9 9 9 9 9 9 9 9 9 9 9 8 8 8 8 8 8 8 8 8 8 8 7 7 7 7 7 7 7 7 7 7 8 8 8 8 8 8 8 8 8 7 7 7 7 7 7 7 7 7 7 7 7 7 7 7 7 7 7 7 8 8 8 8 7 7 7 7 8 7 7 7 7 7 7 7 7 7 7 7 7 7 7 7 7
9 9 9 9 9 9 9 9 9 9 9 8 8 8 8 8 8 8 8 8 8 8 7 7 6 6 6 7 7 7 7 7 8 8 9 8 8 8 8 8 8 8 7 7 7 8 7 7 7 7 7 7 7 7 7 7 7 7 7 7 7 8 8 8 8 8 8 7 7 8 8 7 7 7 7 7 7 7 7 7 7 7 7 7 7
9 9 9 9 9 9 9 9 9 9 9 9 9 9 8 8 8 8 8 8 8 8 7 7 7 6 6 7 7 7 7 8 8 8 9 9 8 8 8 8 8 8 7 7 8 8 7 7 7 7 7 7 7 7 7 7 7 7 7 7 7 7 7 8 8 8 8 7 8 8 8 8 8 7 7 7 7 7 7 7 7 7 7 7 7
9 9 9 10 9 9 10 10 9 9 9 9 9 9 8 8 8 8 8 8 8 8 8 7 7 7 7 7 7 7 7 8 8 8 9 9 8 8 8 8 8 7 7 8 7 7 7 7 7 7 7 7 7 7 7 7 7 7 7 7 7 6 6 7 8 7 7 7 7 7 8 8 8 8 8 7 7 7 7 7 7 7 7 7 7
9 9 10 10 10 10 10 10 10 9 9 9 9 9 9 8 8 8 8 8 8 8 8 8 7 7 7 7 7 7 8 8 8 9 9 9 9 8 7 7 7 7 7 8 7 7 7 7 7 7 7 7 7 7 7 6 7 7 7 7 7 7 7 7 7 7 7 7 7 7 7 8 8 8 8 8 8 7 7 7 7 7 7 7 7
9 9 10 10 10 10 10 10 10 10 9 9 9 9 9 9 8 8 9 9 9 9 9 8 8 7 8 8 7 8 8 8 8 9 9 9 8 7 7 7 8 8 7 7 7 7 7 7 7 7 7 7 7 6 6 6 7 7 7 7 7 7 7 7 7 7 7 7 7 7 7 7 7 8 8 8 8 8 8 7 7 7 7 7 7
9 9 9 10 10 10 10 9 10 10 9 9 9 9 9 9 9 9 9 10 10 10 10 9 9 8 8 9 8 8 9 9 9 9 9 8 8 7 7 7 7 8 7 7 7 7 7 7 7 7 7 7 7 6 6 6 7 7 7 6 6 6 6 7 7 6 6 6 7 7 7 7 7 7 8 8 8 8 8 7 7 7 7 7 7
9 9 9 9 10 9 9 9 9 10 9 9 9 9 9 10 10 10 10 10 10 10 10 10 10 9 9 9 9 9 9 9 9 9 8 8 7 7 7 7 7 7 7 7 7 7 7 7 7 7 7 7 7 6 6 6 7 7 6 6 6 6 6 6 6 6 6 6 6 7 7 7 7 7 7 7 8 8 7 7 7 7 7 7 7
9 9 9 9 9 9 9 9 9 10 9 9 9 10 10 10 10 10 10 10 11 11 10 10 10 10 10 10 10 10 9 9 9 8 8 8 7 7 7 7 7 7 7 7 7 7 7 7 7 7 7 7 7 7 6 6 6 6 6 6 6 6 6 6 6 6 6 6 6 7 7 7 7 7 7 7 7 7 7 7 7 7 7 7 7
10 9 9 9 10 10 10 10 10 10 10 10 10 10 10 11 11 11 11 11 11 10 10 10 10 10 10 10 10 10 9 9 8 8 8 8 7 7 7 7 7 7 7 7 7 7 7 7 7 7 7 7 7 7 7 6 6 6 6 6 6 6 6 6 6 6 6 6 6 6 7 7 7 7 7 7 7 7 7 7 7 7 7 7 7
10 10 9 9 10 10 10 10 10 10 10 10 10 11 11 11 11 11 11 11 10 10 10 10 10 10 10 10 10 10 9 9 8 8 7 7 7 7 7 7 7 7 7 7 7 7 7 7 7 7 7 7 7 7 7 7 6 6 6 6 6 6 6 6 6 6 6 6 6 7 7 7 7 7 7 6 6 7 7 7 7 7 7 7 7
10 10 10 10 10 10 10 10 10 10 10 10 11 11 11 11 11 11 11 10 10 10 10 10 10 10 10 10 10 10 9 9 8 8 7 7 7 7 6 7 7 7 7 7 7 7 7 7 7 7 7 6 6 6 6 6 6 6 6 6 6 6 6 6 6 6 6 6 6 7 7 7 7 6 6 6 6 6 6 6 6 7 7 7 7
10 10 10 10 10 9 10 10 10 10 10 11 11 11 11 11 11 10 10 10 10 10 10 10 10 10 10 10 10 9 9 9 8 8 7 7 7 7 7 7 7 6 6 6 6 7 7 7 7 7 7 7 6 6 6 6 6 6 6 6 6 6 6 7 6 6 6 6 6 6 6 6 6 6 6 6 6 6 6 6 6 6 6 6 7
10 10 10 10 10 9 10 10 10 10 11 11 11 11 11 11 11 10 10 10 10 10 10 10 10 10 10 10 9 9 9 9 8 8 7 7 7 7 7 7 7 6 6 6 6 6 6 6 7 7 7 7 7 6 6 7 7 7 7 6 7 7 7 7 7 7 7 6 6 6 6 6 6 6 6 6 6 6 6 6 6 6 6 6 7
10 10 10 10 10 9 10 10 10 11 11 11 11 11 11 11 10 10 10 10 10 10 9 9 9 9 9 9 9 9 9 9 8 8 8 7 7 7 6 7 7 6 5 5 5 5 6 6 6 6 7 7 7 7 7 7 7 7 7 7 7 7 7 7 7 7 7 7 7 7 6 6 6 6 6 6 6 6 6 6 6 6 6 6 6
10 10 10 10 10 10 10 10 10 11 11 11 11 11 11 10 10 10 10 10 10 9 9 9 9 9 9 9 9 9 9 9 9 8 8 7 7 7 6 6 6 6 5 5 5 5 5 5 5 6 6 6 6 6 6 6 6 6 6 7 7 6 6 6 6 6 6 7 7 6 6 6 6 6 6 6 6 6 6 6 6 6 6 6 6
10 11 10 10 10 10 10 10 11 11 11 11 11 11 10 10 10 10 10 10 9 9 9 9 9 9 9 9 9 9 9 9 9 9 8 8 7 7 7 6 6 6 6 5 5 4 4 4 4 5 5 5 6 6 6 6 6 6 6 6 6 6 6 6 6 6 6 6 6 6 6 6 6 6 6 6 6 6 6 6 6 6 6 6 6
11 11 10 10 10 10 10 10 11 11 11 11 11 11 10 10 10 10 10 9 9 9 9 9 9 9 9 9 9 8 8 8 8 9 8 8 8 7 7 7 6 6 6 5 5 5 4 4 4 4 5 5 5 5 6 6 6 6 6 6 6 6 6 6 6 6 6 6 6 6 6 6 6 6 6 6 6 6 6 6 6 6 6 6 6
11 11 11 10 10 10 10 10 11 11 11 11 11 11 10 10 10 10 10 9 9 9 9 9 9 9 9 9 9 9 8 8 8 8 8 8 8 8 7 7 7 7 6 6 5 5 5 4 4 4 4 4 4 5 5 5 5 5 5 5 5 5 5 5 5 5 5 5 5 5 5 5 6 6 6 6 6 6 6 6 6 6 6 6 6
11 11 10 10 10 10 10 11 11 11 11 11 11 11 10 10 10 10 9 9 9 9 9 9 8 8 8 9 9 9 9 8 8 8 8 8 8 8 8 8 7 7 7 6 6 6 5 5 4 4 4 4 4 5 5 5 5 5 5 5 5 5 5 5 5 5 5 5 5 5 5 5 5 5 5 5 6 6 5 5 5 5 6 6 6
10 10 10 10 10 10 10 11 11 11 11 11 11 11 10 10 10 10 9 9 9 9 9 8 8 8 8 8 8 8 9 8 8 8 8 8 8 8 8 8 8 8 7 7 6 6 6 5 5 4 4 4 4 4 5 5 4 4 4 4 4 4 4 4 4 4 4 4 4 5 5 5 5 5 5 5 5 5 5 5 5 5 5 5 5
10 10 10 10 10 10 10 11 11 11 11 11 11 11 10 10 10 10 9 9 9 9 9 9 9 9 9 8 8 8 8 8 8 8 8 8 8 8 8 8 8 8 7 7 7 7 6 6 6 5 5 5 4 4 4 4 4 4 4 4 4 4 4 4 4 4 5 5 5 5 4 4 4 4 4 5 5 5 5 5 5 5 5 5 5
10 10 10 10 10 10 10 11 11 11 11 11 11 11 10 10 10 10 9 9 9 9 9 9 9 9 9 9 9 9 8 8 8 8 8 8 8 8 8 8 8 8 8 7 7 7 6 6 6 6 5 5 5 4 4 4 4 4 4 4 4 4 4 4 4 4 5 5 5 5 5 5 5 5 5 5 5 5 5 5 5 5 5 5 5
10 10 10 10 10 10 10 11 11 11 11 11 11 11 10 10 10 10 10 9 9 9 9 9 9 9 9 9 9 9 9 8 8 8 8 8 8 8 8 8 8 8 8 8 7 7 6 6 6 6 6 5 5 5 4 4 4 4 4 4 4 4 4 4 4 4 4 4 4 5 5 5 5 5 5 5 5 5 5 5 5 5 5 5 4
10 10 10 9 10 10 10 11 11 11 11 11 11 11 11 10 10 10 10 10 9 9 9 9 9 9 9 9 9 9 8 8 8 8 8 8 8 8 8 8 8 8 8 7 7 7 7 6 6 6 6 5 5 5 5 5 5 5 5 4 4 4 4 4 4 5 5 5 5 4 4 4 5 5 5 5 5 5 5 5 5 5 5 5 4
10 10 10 9 10 10 10 11 11 12 12 11 11 11 11 10 10 10 10 10 9 9 9 9 9 9 9 8 8 8 8 8 8 8 8 8 8 8 8 8 8 7 7 7 7 7 7 7 6 6 6 5 5 5 5 5 5 5 5 5 4 4 4 4 5 5 5 5 5 5 4 4 4 4 4 4 4 4 4 4 4 4 4 4 4
10 10 10 10 10 10 11 11 11 12 12 11 11 11 11 11 10 10 10 10 10 9 9 9 9 9 8 8 8 8 8 8 8 8 8 8 7 7 7 7 7 7 7 7 7 7 7 7 6 6 6 6 5 5 5 5 5 5 5 5 5 5 5 5 5 5 5 5 5 5 5 5 5 4 4 4 4 4 4 4 4 4 4 4 4
11 10 10 10 10 10 11 11 12 12 12 12 11 11 11 11 10 10 10 10 10 9 9 9 9 9 9 8 8 8 8 8 8 8 8 8 7 7 7 7 7 7 7 7 7 7 7 7 6 6 6 6 5 5 5 5 5 5 5 5 5 5 5 5 5 5 5 5 5 5 5 5 5 4 4 4 4 4 4 4 4 4 4 4 4
11 11 11 10 10 11 11 12 12 12 12 12 11 11 11 11 10 10 10 10 10 9 9 9 9 9 9 8 8 8 8 8 8 8 8 8 8 7 7 7 7 7 7 7 7 6 6 7 6 6 6 6 5 5 5 5 5 5 5 5 5 5 5 5 5 5 5 5 5 5 5 5 4 4 4 4 4 4 4 4 4 4 3 3 4
12 11 11 11 11 11 12 12 12 12 12 12 11 11 11 11 11 10 10 10 10 9 9 9 9 9 9 9 8 8 8 8 8 8 8 8 7 7 7 6 6 6 6 6 6 6 6 6 6 6 6 6 5 5 5 5 5 5 5 5 5 5 5 4 4 4 4 4 4 4 4 4 4 4 4 4 4 4 5 5 5 4 4 3 3
12 12 12 12 12 12 12 12 12 12 12 12 11 11 11 11 10 10 10 10 10 10 9 9 9 9 9 9 8 8 8 8 8 8 7 7 7 7 7 6 6 6 6 6 6 6 6 6 6 6 6 5 5 5 5 5 5 5 5 5 5 4 4 4 4 4 4 4 4 4 4 4 4 4 4 4 4 5 5 5 5 4 4 4 4
12 12 12 12 12 12 12 12 12 12 12 12 11 11 11 11 11 10 10 10 10 10 9 9 9 9 9 9 8 8 8 8 8 8 7 7 7 7 7 6 6 6 6 6 6 6 6 6 6 5 5 5 5 5 4 4 4 4 4 4 4 4 4 4 3 3 3 3 3 4 4 4 4 4 4 4 4 5 5 5 4 4 4 3 3
13 12 12 12 12 12 12 12 12 12 12 12 11 11 11 11 11 11 10 10 10 10 10 9 9 9 9 9 8 8 8 8 7 7 7 7 7 7 6 6 6 6 6 6 6 6 6 5 5 5 5 5 5 4 4 4 4 4 4 4 4 4 3 3 3 3 3 3 3 3 3 4 4 4 4 4 4 4 4 4 4 4 3 3 3
13 13 13 13 13 13 13 12 12 12 12 12 11 11 11 11 11 11 10 10 10 10 10 9 9 9 9 9 8 8 8 7 7 7 7 7 7 6 6 6 6 6 6 6 5 5 5 5 5 5 5 4 4 4 4 4 4 4 4 4 4 4 4 4 4 4 4 4 4 4 4 4 4 4 4 4 4 4 4 4 4 4 4 3 3
13 13 13 13 13 13 13 12 12 12 12 12 11 11 11 11 11 11 10 10 10 10 10 9 9 9 9 8 8 8 7 7 7 7 7 7 6 6 6 6 6 6 5 5 5 5 5 5 5 5 4 4 4 4 4 4 4 4 4 4 4 4 4 4 4 4 4 4 4 4 4 4 4 4 4 3 3 3 3 3 3 3 3 3 3
14 14 13 13 13 13 13 12 12 12 12 12 12 11 11 11 11 11 10 10 10 10 10 9 9 9 9 8 8 8 7 7 7 7 6 6 6 6 6 6 5 5 5 5 5 5 5 5 5 4 4 4 4 4 3 3 3 3 4 4 4 4 4 4 4 3 3 4 4 4 4 4 4 4 4 4 3 3 3 3 3 3 3 3 3
14 14 14 14 13 13 13 13 12 12 12 12 12 12 11 11 11 11 11 11 10 10 10 10 9 9 9 8 8 8 7 7 7 6 6 6 6 6 6 5 5 5 5 5 4 4 4 4 4 4 4 4 4 3 3 3 3 3 3 4 4 4 3 3 4 4 3 3 3 4 4 4 4 4 4 4 3 3 3 3 3 3 3 3 3
14 14 14 14 13 13 13 13 12 12 12 12 12 12 11 11 11 11 11 11 11 11 10 10 9 9 9 8 8 8 7 7 6 6 6 6 6 6 6 5 5 5 5 4 4 4 4 4 4 4 4 4 4 3 3 3 3 3 3 3 3 3 3 4 4 4 4 4 4 4 4 3 3 3 3 3 3 3 3 3 3 3 3 3 3
14 14 14 14 14 13 13 13 13 12 12 12 12 12 11 11 11 11 11 11 11 11 10 10 10 9 9 8 8 7 7 7 6 6 6 6 6 5 5 5 5 5 5 4 4 4 4 4 4 4 4 4 4 3 3 3 3 3 3 3 3 3 4 4 4 4 4 4 4 4 4 3 3 3 3 3 3 3 3 3 3 3 3 3 3
14 14 14 14 14 13 13 13 13 12 12 12 12 12 12 11 11 11 11 11 11 11 11 10 10 9 9 8 8 7 7 7 6 6 6 6 6 5 5 5 5 5 5 4 4 4 4 4 4 4 4 4 4 3 3 3 3 3 3 3 3 3 4 4 4 4 4 4 4 4 3 3 3 3 3 3 3 3 2 2 2 3 3 3 3
14 14 14 14 14 13 13 13 13 13 12 12 12 12 12 12 12 12 12 12 11 11 11 11 10 9 9 8 7 7 7 7 6 6 6 6 5 5 5 5 5 5 5 4 4 4 4 4 4 4 4 4 4 3 3 3 3 3 3 3 3 3 3 4 4 4 4 4 4 4 3 3 3 3 3 2 2 2 2 2 2 2 2 2 2
14 14 14 14 14 14 13 13 13 13 12 12 12 12 12 12 12 12 12 12 12 11 11 11 10 10 9 8 7 7 7 7 6 6 6 6 5 5 5 5 5 5 5 4 4 4 4 4 4 4 4 4 4 3 3 3 3 3 3 3 3 3 3 4 4 4 4 3 3 3 3 3 2 2 2 2 2 2 2 2 2 2 2 2 2
15 14 14 14 14 14 14 13 13 13 13 12 12 12 12 12 12 12 12 12 12 12 11 11 11 10 9 8 8 8 8 8 8 7 6 6 5 5 5 5 5 5 5 4 4 4 4 4 4 4 4 4 4 3 3 3 3 3 3 3 3 3 3 3 3 3 3 3 3 3 3 3 2 2 2 2 2 2 2 2 2 2 2 2 2
15 15 15 14 14 14 14 13 13 13 13 13 13 13 13 13 13 13 12 12 12 12 12 12 11 10 9 9 8 9 9 9 9 8 7 6 6 5 5 5 5 5 4 5 4 4 4 4 4 4 4 4 4 3 3 3 3 3 3 3 3 3 3 3 3 3 3 3 3 3 3 3 2 2 2 2 2 2 2 2 2 2 2 2 2
15 15 15 14 14 14 14 14 13 13 13 13 13 13 13 13 13 13 13 13 12 12 12 12 11 11 10 10 9 9 9 9 9 8 7 7 6 6 5 5 5 4 4 4 4 4 4 4 4 4 4 4 3 3 3 3 3 3 3 3 3 3 3 3 3 3 3 3 3 2 3 2 2 2 2 2 2 2 2 2 2 1 1 1 1
15 15 15 15 15 14 14 14 13 13 13 13 13 13 13 13 13 13 13 13 13 12 12 12 11 11 11 10 9 9 9 9 9 8 7 7 7 6 6 5 5 4 4 4 4 4 4 4 4 4 4 3 3 3 3 3 3 3 3 3 3 3 3 3 3 3 3 3 2 2 2 2 2 2 2 2 2 2 2 2 1 1 1 1 1
15 15 15 15 15 15 14 14 14 13 13 13 13 13 13 13 13 13 13 13 13 12 12 12 12 12 11 10 10 10 9 9 9 8 7 7 7 7 6 5 5 5 4 4 4 4 4 4 4 4 4 3 3 3 3 3 3 3 3 3 3 3 3 3 3 3 3 2 2 2 2 2 2 1 1 1 1 2 2 2 1 1 1 1 2
15 15 15 15 15 15 15 14 14 14 14 14 13 13 13 13 13 13 13 13 13 12 12 12 12 12 11 11 10 10 9 9 8 8 8 8 7 7 7 6 5 5 4 4 4 4 4 4 4 4 4 3 3 3 3 3 3 3 3 3 3 3 2 2 2 3 3 2 2 2 2 2 1 1 1 2 2 2 2 2 2 1 1 2 1
15 15 15 15 15 15 15 15 14 14 14 14 14 14 13 13 13 13 13 13 13 12 12 12 12 12 12 12 11 10 9 8 8 8 8 8 8 8 7 6 6 5 4 4 4 4 4 4 4 4 3 3 3 3 3 3 3 3 3 3 3 2 2 2 2 3 3 2 2 2 2 2 1 1 1 2 2 2 2 2 2 1 1 1 1
Height
3221 3222 3222 3222 3222 3222 3223 3223 3223 3224 3224 3224 3224 3223 3223 3223 3222 3222 3221 3221 3220 3220 3220 3220 3219 3218 3218 3217 3217 3216 3215 3214 3213 3212 3212 3212 3212 3213 3214 3214 3214 3214 3215 3216 3216 3217 3217 3217 3218 3218 3218 3218 3219 3219 3220 3220 3220 3220 3220 3220 3220 3220 3221 3221 3222 3222 3223 3224 3224 3225 3226 3226 3226 3227 3227 3227 3227 3227 3227 3227 3227 3227 3227 3227 3227
3221 3222 3222 3222 3222 3223 3223 3223 3223 3223 3223 3224 3224 3224 3223 3223 3222 3222 3221 3220 3220 3220 3219 3219 3219 3218 3218 3217 3217 3216 3215 3214 3213 3212 3212 3211 3212 3212 3213 3214 3214 3214 3215 3215 3216 3217 3217 3217 3217 3218 3218 3218 3219 3219 3220 3221 3221 3221 3221 3221 3221 3221 3220 3221 3222 3223 3223 3223 3224 3225 3225 3225 3226 3226 3226 3227 3227 3227 3227 3227 3228 3228 3228 3227 3227
3221 3222 3222 3222 3223 3223 3223 3223 3223 3223 3223 3223 3223 3223 3223 3223 3222 3222 3221 3220 3220 3219 3219 3218 3218 3217 3217 3216 3216 3216 3215 3214 3214 3213 3212 3211 3211 3212 3212 3213 3214 3214 3214 3214 3216 3216 3217 3217 3217 3218 3218 3218 3219 3220 3221 3221 3222 3222 3222 3222 3222 3222 3222 3222 3223 3223 3223 3224 3224 3224 3225 3225 3226 3226 3226 3226 3226 3227 3227 3227 3227 3228 3228 3228 3227
3221 3221 3222 3222 3223 3223 3223 3223 3223 3223 3223 3223 3223 3223 3222 3222 3222 3221 3221 3220 3220 3219 3218 3217 3217 3216 3215 3215 3215 3215 3214 3213 3213 3213 3212 3211 3211 3211 3212 3212 3213 3214 3214 3214 3216 3216 3216 3217 3217 3218 3218 3219 3219 3220 3220 3221 3221 3222 3223 3223 3222 3223 3223 3222 3222 3223 3223 3224 3224 3224 3225 3225 3225 3226 3226 3226 3227 3227 3227 3227 3227 3227 3228 3228 3228
3220 3221 3222 3222 3223 3223 3223 3224 3224 3223 3223 3223 3223 3222 3222 3221 3221 3221 3220 3220 3219 3219 3218 3217 3216 3215 3214 3213 3213 3213 3213 3212 3212 3212 3212 3211 3211 3211 3212 3212 3213 3214 3214 3215 3215 3216 3216 3216 3217 3218 3218 3218 3219 3220 3220 3220 3221 3222 3223 3223 3223 3223 3223 3223 3222 3222 3222 3223 3224 3224 3225 3225 3225 3226 3226 3226 3226 3227 3227 3226 3227 3227 3227 3227 3227
3220 3221 3221 3222 3223 3223 3223 3224 3224 3223 3223 3223 3223 3222 3222 3221 3220 3220 3219 3219 3218 3218 3217 3216 3215 3214 3212 3212 3211 3211 3211 3211 3211 3211 3211 3211 3211 3212 3212 3212 3212 3213 3214 3215 3215 3214 3214 3215 3216 3217 3218 3218 3219 3219 3220 3220 3221 3221 3222 3222 3223 3223 3223 3223 3222 3222 3222 3223 3223 3224 3224 3225 3225 3226 3226 3226 3226 3226 3227 3226 3226 3226 3226 3226 3226
3220 3220 3221 3222 3222 3223 3223 3224 3224 3223 3223 3223 3222 3222 3221 3221 3220 3220 3219 3218 3218 3217 3217 3215 3213 3212 3211 3211 3210 3210 3210 3210 3210 3211 3211 3211 3211 3212 3212 3212 3212 3213 3214 3215 3214 3214 3214 3215 3216 3217 3218 3218 3218 3218 3218 3219 3220 3220 3220 3221 3222 3222 3223 3224 3223 3222 3222 3222 3223 3223 3224 3224 3225 3225 3226 3226 3226 3226 3226 3226 3226 3226 3225 3225 3225
3219 3220 3221 3221 3222 3222 3223 3223 3224 3223 3223 3223 3222 3222 3221 3221 3220 3220 3219 3218 3218 3216 3215 3214 3212 3211 3210 3209 3209 3209 3209 3210 3209 3210 3211 3211 3211 3212 3212 3212 3212 3213 3213 3214 3214 3214 3215 3215 3216 3217 3218 3218 3218 3218 3217 3218 3219 3220 3220 3220 3221 3221 3222 3223 3222 3222 3222 3222 3222 3223 3224 3223 3224 3224 3225 3226 3226 3226 3226 3226 3226 3225 3225 3225 3225
3219 3220 3221 3221 3222 3222 3223 3223 3223 3223 3223 3222 3222 3222 3221 3221 3220 3220 3219 3218 3217 3216 3215 3213 3212 3211 3210 3209 3209 3208 3209 3209 3209 3209 3210 3211 3211 3211 3212 3212 3212 3213 3213 3213 3214 3214 3215 3215 3216 3217 3217 3218 3218 3218 3217 3218 3219 3220 3220 3220 3221 3221 3221 3221 3221 3221 3221 3221 3222 3223 3224 3223 3223 3223 3224 3224 3225 3225 3225 3225 3225 3225 3224 3224 3224
3219 3220 3220 3221 3221 3222 3222 3222 3223 3222 3222 3222 3222 3222 3221 3221 3220 3220 3219 3218 3217 3216 3215 3213 3212 3211 3210 3209 3209 3209 3209 3209 3209 3209 3210 3211 3211 3211 3211 3211 3212 3212 3213 3213 3213 3214 3214 3215 3215 3216 3217 3217 3217 3217 3216 3217 3219 3219 3219 3220 3220 3221 3220 3220 3220 3220 3220 3220 3221 3222 3223 3222 3222 3222 3222 3223 3223 3223 3224 3224 3224 3224 3224 3224 3224
3219 3219 3220 3221 3221 3221 3222 3222 3222 3222 3222 3222 3222 3221 3221 3221 3220 3220 3219 3218 3217 3216 3215 3214 3213 3212 3211 3209 3209 3209 3209 3209 3209 3209 3209 3210 3210 3210 3211 3211 3211 3212 3212 3212 3213 3213 3214 3214 3215 3215 3215 3216 3216 3216 3216 3216 3217 3218 3218 3219 3219 3219 3219 3219 3218 3218 3219 3219 3220 3220 3221 3221 3221 3221 3221 3222 3222 3222 3222 3222 3222 3223 3223 3223 3222
3218 3219 3220 3221 3221 3221 3221 3221 3221 3222 3222 3221 3221 3221 3221 3221 3220 3220 3219 3218 3218 3217 3216 3214 3213 3212 3211 3210 3209 3209 3209 3208 3209 3209 3209 3209 3210 3210 3211 3211 3211 3211 3211 3212 3212 3213 3213 3214 3214 3214 3215 3214 3215 3215 3215 3216 3216 3217 3218 3218 3217 3217 3218 3218 3217 3218 3218 3218 3218 3219 3219 3219 3219 3220 3220 3220 3221 3220 3220 3220 3221 3221 3221 3221 3221
3218 3219 3220 3220 3221 3221 3221 3221 3221 3221 3221 3221 3221 3221 3221 3221 3220 3220 3219 3219 3218 3217 3216 3215 3214 3213 3212 3211 3210 3209 3209 3209 3208 3208 3209 3209 3209 3210 3210 3210 3211 3211 3211 3211 3211 3212 3213 3213 3213 3213 3214 3214 3214 3214 3214 3215 3215 3216 3216 3216 3216 3216 3216 3216 3216 3217 3217 3217 3217 3217 3218 3218 3218 3218 3218 3219 3219 3218 3218 3218 3218 3219 3219 3219 3219
3217 3218 3219 3220 3220 3220 3220 3220 3220 3220 3220 3220 3221 3221 3221 3221 3221 3220 3220 3219 3219 3218 3217 3216 3215 3213 3212 3212 3211 3210 3209 3209 3208 3208 3208 3209 3209 3209 3209 3210 3210 3210 3211 3211 3211 3211 3212 3212 3213 3213 3213 3213 3213 3214 3214 3214 3214 3214 3214 3215 3215 3215 3215 3215 3215 3215 3216 3216 3216 3216 3216 3217 3217 3217 3217 3217 3217 3217 3216 3215 3216 3216 3216 3217 3217
3217 3218 3219 3219 3220 3220 3220 3220 3220 3220 3220 3220 3221 3221 3221 3221 3221 3221 3220 3220 3219 3218 3218 3217 3215 3214 3213 3212 3211 3211 3210 3209 3209 3209 3209 3209 3209 3209 3210 3210 3210 3210 3210 3210 3210 3210 3211 3211 3212 3212 3212 3212 3213 3213 3213 3213 3214 3213 3213 3213 3214 3214 3214 3215 3215 3214 3214 3214 3214 3214 3215 3215 3215 3215 3216 3216 3216 3216 3215 3214 3214 3214 3214 3215 3216
3216 3217 3218 3219 3219 3219 3219 3219 3219 3219 3220 3220 3220 3221 3221 3222 3221 3221 3221 3220 3220 3219 3218 3217 3216 3215 3214 3213 3212 3211 3211 3210 3210 3209 3209 3209 3209 3209 3210 3210 3209 3209 3209 3209 3210 3210 3210 3210 3210 3211 3211 3211 3211 3212 3212 3212 3212 3213 3213 3212 3212 3212 3213 3213 3214 3214 3214 3214 3213 3213 3213 3213 3214 3214 3214 3214 3214 3214 3214 3213 3213 3212 3212 3213 3214
3215 3216 3217 3218 3218 3219 3219 3219 3219 3219 3219 3220 3220 3221 3221 3222 3222 3221 3221 3220 3220 3219 3219 3218 3216 3215 3214 3213 3213 3212 3211 3211 3211 3210 3210 3210 3210 3210 3210 3210 3209 3209 3209 3209 3209 3209 3209 3210 3210 3210 3210 3210 3210 3210 3210 3210 3211 3211 3211 3211 3211 3211 3211 3211 3211 3211 3212 3212 3212 3212 3212 3212 3212 3212 3212 3212 3212 3212 3212 3212 3212 3211 3211 3211 3212
3214 3215 3216 3217 3217 3218 3218 3218 3219 3219 3219 3220 3220 3221 3221 3222 3222 3221 3221 3221 3220 3220 3219 3218 3217 3216 3215 3214 3213 3213 3212 3212 3211 3211 3210 3210 3210 3210 3210 3210 3209 3210 3209 3209 3209 3209 3209 3209 3209 3209 3209 3209 3209 3209 3209 3209 3209 3209 3209 3209 3209 3209 3209 3209 3209 3209 3209 3210 3210 3210 3210 3210 3210 3210 3210 3210 3210 3210 3210 3210 3210 3209 3209 3209 3209
3212 3214 3215 3216 3216 3217 3217 3218 3218 3219 3219 3220 3220 3221 3221 3222 3222 3222 3221 3221 3221 3220 3220 3219 3217 3216 3215 3215 3214 3213 3213 3212 3212 3212 3211 3210 3210 3210 3210 3210 3209 3210 3210 3210 3209 3209 3209 3209 3209 3208 3208 3208 3208 3208 3208 3208 3208 3208 3208 3208 3208 3208 3208 3208 3208 3208 3208 3208 3208 3208 3208 3208 3209 3209 3209 3208 3208 3208 3208 3208 3207 3207 3207 3207 3207
3210 3212 3213 3214 3215 3216 3216 3217 3218 3218 3219 3220 3220 3221 3221 3221 3222 3222 3221 3221 3221 3220 3220 3219 3218 3217 3216 3215 3214 3213 3213 3213 3212 3212 3211 3211 3211 3210 3210 3210 3210 3210 3210 3210 3210 3210 3209 3209 3209 3208 3208 3207 3207 3207 3207 3207 3207 3207 3207 3207 3207 3207 3207 3207 3207 3207 3207 3207 3207 3207 3207 3207 3207 3206 3206 3206 3206 3206 3206 3205 3205 3205 3205 3205 3205
3209 3211 3212 3213 3214 3215 3215 3216 3217 3218 3219 3219 3220 3220 3221 3221 3221 3221 3221 3221 3221 3220 3220 3219 3218 3217 3216 3215 3214 3213 3213 3212 3212 3212 3211 3211 3211 3211 3211 3210 3210 3210 3210 3210 3209 3209 3209 3209 3209 3208 3208 3208 3207 3206 3206 3206 3206 3206 3206 3206 3206 3206 3206 3206 3206 3205 3205 3205 3205 3205 3205 3204 3204 3204 3204 3203 3203 3203 3203 3203 3203 3202 3202 3202 3202
3207 3209 3211 3212 3213 3213 3214 3215 3216 3217 3218 3219 3220 3220 3221 3221 3221 3221 3221 3221 3221 3220 3220 3219 3218 3217 3216 3215 3215 3214 3213 3212 3212 3211 3211 3211 3211 3211 3211 3210 3210 3210 3209 3209 3209 3209 3209 3209 3208 3208 3208 3207 3207 3206 3206 3206 3206 3205 3205 3205 3205 3205 3205 3205 3204 3204 3204 3204 3204 3203 3203 3203 3202 3202 3201 3201 3201 3200 3200 3200 3200 3200 3200 3199 3200
3206 3207 3209 3210 3211 3212 3213 3214 3215 3217 3218 3219 3219 3220 3220 3220 3221 3221 3221 3221 3220 3220 3219 3219 3218 3217 3216 3215 3214 3214 3213 3213 3212 3211 3211 3211 3210 3210 3210 3210 3210 3210 3209 3209 3209 3208 3208 3209 3208 3208 3208 3207 3207 3207 3206 3206 3205 3205 3205 3204 3204 3204 3204 3204 3204 3204 3203 3203 3202 3202 3202 3201 3201 3200 3200 3199 3199 3198 3198 3198 3197 3197 3197 3197 3197
3204 3206 3207 3209 3210 3211 3212 3213 3215 3216 3217 3218 3219 3219 3220 3220 3220 3220 3220 3220 3220 3220 3219 3219 3218 3217 3216 3215 3214 3214 3213 3213 3212 3212 3211 3211 3210 3210 3210 3210 3210 3209 3209 3209 3209 3208 3208 3208 3208 3208 3208 3208 3207 3207 3206 3206 3205 3205 3205 3204 3204 3204 3204 3203 3203 3203 3202 3202 3201 3201 3200 3200 3199 3199 3198 3198 3197 3197 3196 3196 3195 3195 3195 3194 3194
3202 3204 3206 3207 3209 3210 3211 3212 3214 3215 3216 3217 3217 3218 3219 3219 3219 3219 3219 3219 3219 3219 3219 3219 3218 3217 3216 3215 3214 3214 3213 3213 3212 3211 3211 3210 3210 3210 3209 3209 3209 3209 3209 3208 3208 3208 3208 3207 3207 3207 3208 3208 3207 3207 3206 3206 3205 3205 3205 3204 3204 3203 3203 3203 3202 3202 3201 3201 3200 3199 3199 3198 3197 3197 3196 3196 3195 3195 3194 3194 3193 3193 3192 3192 3192
3201 3203 3204 3205 3206 3208 3209 3210 3212 3213 3215 3215 3216 3217 3217 3218 3218 3218 3218 3218 3218 3218 3219 3218 3218 3217 3216 3215 3215 3214 3214 3213 3212 3211 3211 3210 3209 3209 3209 3209 3208 3208 3208 3208 3208 3208 3207 3207 3207 3207 3207 3207 3207 3207 3206 3206 3205 3205 3204 3204 3203 3203 3202 3202 3201 3201 3200 3199 3199 3198 3197 3196 3196 3195 3194 3194 3193 3192 3192 3191 3191 3190 3190 3190 3189
3199 3200 3202 3203 3204 3206 3207 3209 3210 3212 3213 3214 3215 3216 3216 3217 3217 3217 3217 3217 3217 3218 3218 3218 3217 3217 3216 3215 3215 3214 3214 3213 3212 3211 3210 3210 3209 3209 3208 3208 3208 3207 3207 3207 3207 3207 3207 3207 3207 3206 3206 3206 3206 3206 3206 3205 3205 3204 3204 3203 3202 3202 3201 3200 3200 3199 3198 3198 3197 3196 3195 3195 3194 3193 3192 3192 3191 3190 3190 3189 3189 3188 3187 3187 3187
3197 3198 3199 3200 3202 3203 3205 3207 3208 3210 3211 3213 3213 3214 3215 3215 3216 3216 3216 3216 3216 3217 3217 3217 3216 3216 3215 3215 3214 3214 3213 3213 3212 3211 3210 3209 3209 3208 3208 3207 3207 3207 3207 3206 3206 3206 3206 3206 3206 3205 3205 3205 3205 3205 3204 3204 3204 3203 3203 3202 3201 3201 3200 3199 3198 3198 3197 3196 3195 3194 3193 3192 3192 3191 3190 3190 3189 3188 3187 3187 3186 3185 3185 3184 3184
3195 3196 3197 3198 3199 3201 3203 3204 3206 3208 3209 3211 3212 3212 3213 3214 3214 3214 3214 3215 3216 3216 3216 3216 3215 3215 3214 3214 3213 3213 3212 3212 3211 3211 3210 3209 3208 3208 3207 3207 3206 3206 3206 3206 3205 3205 3205 3205 3204 3204 3204 3204 3204 3203 3203 3202 3202 3201 3201 3201 3200 3199 3199 3198 3197 3196 3195 3194 3193 3192 3191 3190 3189 3188 3187 3187 3186 3185 3185 3184 3183 3182 3182 3181 3181
3194 3194 3195 3196 3197 3198 3200 3202 3204 3206 3207 3209 3210 3210 3211 3212 3212 3213 3213 3214 3214 3215 3215 3214 3214 3214 3213 3213 3212 3212 3211 3211 3211 3210 3209 3208 3208 3207 3206 3206 3205 3205 3205 3205 3204 3204 3204 3203 3203 3202 3202 3202 3202 3202 3201 3201 3200 3200 3199 3199 3198 3198 3197 3196 3195 3195 3194 3193 3192 3190 3189 3188 3187 3186 3185 3184 3183 3182 3181 3180 3180 3179 3179 3178 3178
3191 3193 3193 3194 3195 3196 3198 3200 3202 3204 3205 3207 3208 3209 3209 3210 3211 3211 3211 3212 3213 3213 3213 3213 3212 3212 3212 3211 3211 3211 3210 3210 3209 3209 3208 3207 3207 3206 3205 3205 3204 3204 3203 3203 3203 3202 3202 3202 3201 3201 3201 3201 3200 3200 3200 3199 3198 3198 3197 3197 3196 3196 3195 3195 3194 3193 3192 3191 3190 3188 3187 3186 3184 3183 3182 3181 3180 3179 3177 3177 3176 3175 3175 3174 3174
3189 3190 3191 3192 3193 3194 3196 3198 3200 3201 3203 3205 3206 3207 3208 3208 3209 3209 3210 3210 3211 3211 3211 3211 3211 3210 3210 3210 3210 3209 3209 3208 3208 3207 3207 3206 3205 3204 3204 3203 3203 3202 3201 3201 3201 3200 3200 3200 3200 3199 3199 3199 3199 3198 3198 3197 3196 3196 3195 3195 3194 3194 3193 3193 3192 3191 3190 3188 3187 3186 3184 3183 3182 3180 3179 3177 3176 3175 3174 3174 3173 3172 3171 3170 3170
3186 3188 3189 3191 3192 3193 3194 3196 3197 3199 3201 3202 3204 3205 3206 3206 3207 3207 3208 3208 3209 3209 3209 3209 3209 3209 3208 3208 3208 3208 3207 3207 3206 3206 3205 3205 3204 3203 3202 3202 3201 3200 3200 3199 3199 3199 3198 3197 3197 3197 3197 3197 3197 3196 3196 3195 3194 3194 3193 3192 3192 3191 3191 3190 3189 3188 3187 3185 3184 3183 3181 3180 3179 3177 3176 3174 3173 3171 3170 3169 3169 3168 3168 3167 3166
3184 3185 3187 3189 3190 3191 3192 3194 3195 3197 3198 3199 3201 3202 3203 3204 3205 3205 3206 3206 3207 3207 3207 3207 3207 3207 3206 3206 3206 3206 3205 3205 3205 3204 3204 3203 3202 3202 3201 3200 3200 3199 3198 3197 3197 3197 3196 3196 3195 3195 3194 3194 3194 3194 3193 3193 3192 3192 3191 3190 3189 3189 3188 3188 3187 3185 3184 3182 3181 3179 3178 3176 3175 3173 3172 3171 3169 3168 3167 3166 3164 3163 3163 3163 3163
3181 3182 3184 3186 3188 3189 3190 3191 3193 3194 3195 3197 3198 3200 3201 3202 3203 3203 3203 3204 3205 3205 3205 3205 3204 3204 3204 3204 3204 3203 3203 3203 3203 3202 3202 3201 3201 3200 3199 3199 3198 3197 3196 3196 3195 3195 3194 3194 3193 3193 3192 3192 3192 3191 3191 3190 3190 3189 3189 3188 3187 3187 3186 3185 3184 3182 3181 3179 3177 3176 3174 3173 3171 3170 3168 3167 3166 3164 3163 3162 3160 3159 3158 3158 3158
3178 3180 3182 3183 3185 3186 3188 3189 3190 3192 3193 3194 3195 3197 3199 3199 3200 3201 3201 3202 3202 3202 3202 3202 3202 3202 3202 3202 3202 3201 3201 3201 3201 3200 3199 3199 3198 3198 3197 3197 3196 3196 3195 3194 3193 3192 3192 3192 3192 3191 3190 3189 3189 3189 3189 3188 3188 3187 3187 3186 3185 3185 3184 3183 3181 3179 3177 3176 3174 3173 3171 3169 3168 3166 3165 3164 3163 3161 3160 3158 3157 3156 3155 3153 3152
3175 3177 3179 3181 3182 3184 3186 3187 3188 3189 3191 3192 3193 3194 3196 3197 3198 3198 3199 3199 3200 3200 3200 3199 3199 3199 3199 3199 3199 3198 3198 3198 3198 3197 3197 3196 3196 3196 3195 3195 3194 3194 3193 3192 3191 3190 3190 3190 3190 3189 3188 3187 3187 3186 3186 3186 3185 3184 3184 3183 3182 3182 3181 3180 3178 3176 3174 3173 3171 3169 3168 3166 3164 3162 3161 3160 3159 3157 3156 3155 3153 3152 3151 3150 3149
3172 3174 3176 3178 3180 3182 3184 3185 3186 3187 3188 3189 3190 3192 3193 3194 3195 3196 3196 3197 3197 3197 3197 3197 3197 3196 3196 3196 3196 3195 3195 3195 3195 3195 3194 3194 3193 3193 3193 3192 3192 3192 3191 3190 3190 3189 3188 3188 3187 3187 3186 3185 3184 3184 3183 3182 3182 3181 3180 3180 3179 3178 3177 3176 3175 3173 3171 3169 3168 3167 3165 3163 3161 3159 3158 3156 3154 3153 3151 3150 3150 3149 3147 3146 3145
3169 3171 3173 3175 3177 3179 3181 3182 3184 3185 3186 3187 3188 3189 3190 3191 3193 3193 3194 3194 3194 3194 3194 3194 3194 3193 3193 3193 3192 3192 3192 3192 3192 3192 3192 3191 3191 3191 3191 3190 3190 3189 3189 3188 3187 3187 3186 3186 3185 3185 3184 3183 3182 3181 3180 3179 3178 3177 3176 3175 3176 3175 3173 3172 3171 3170 3168 3166 3165 3164 3163 3160 3158 3157 3155 3153 3151 3148 3146 3145 3145 3144 3143 3141 3141
3166 3168 3170 3172 3174 3176 3178 3179 3181 3182 3183 3184 3185 3186 3188 3189 3190 3190 3191 3191 3191 3191 3191 3191 3190 3190 3190 3189 3189 3189 3189 3190 3190 3190 3190 3189 3188 3188 3188 3188 3187 3187 3186 3186 3185 3184 3184 3183 3183 3182 3182 3181 3180 3179 3178 3177 3175 3174 3172 3171 3171 3171 3170 3169 3168 3166 3164 3162 3161 3160 3159 3157 3155 3153 3152 3150 3148 3145 3142 3141 3140 3138 3137 3136 3136
3163 3165 3167 3169 3171 3173 3174 3176 3177 3178 3179 3180 3182 3184 3185 3186 3187 3188 3188 3188 3188 3188 3188 3187 3187 3186 3186 3186 3186 3187 3187 3187 3187 3187 3187 3187 3186 3186 3186 3185 3184 3184 3183 3183 3182 3181 3181 3180 3180 3180 3179 3178 3177 3176 3175 3174 3172 3171 3170 3168 3167 3166 3165 3165 3165 3163 3159 3156 3155 3155 3155 3153 3151 3149 3148 3147 3145 3142 3139 3137 3136 3134 3132 3131 3130
3160 3162 3164 3165 3167 3169 3170 3171 3173 3174 3176 3178 3179 3181 3182 3183 3184 3184 3185 3185 3185 3185 3184 3184 3183 3183 3183 3183 3184 3184 3185 3185 3185 3185 3185 3184 3184 3184 3183 3182 3181 3181 3180 3180 3179 3178 3178 3177 3177 3176 3175 3175 3174 3172 3171 3170 3169 3168 3167 3165 3164 3163 3161 3160 3161 3160 3157 3152 3150 3149 3150 3149 3146 3144 3143 3142 3140 3138 3135 3134 3132 3130 3128 3127 3125
3156 3158 3160 3161 3163 3165 3166 3167 3169 3170 3172 3175 3177 3178 3179 3180 3181 3181 3181 3182 3182 3181 3181 3180 3180 3180 3180 3180 3181 3182 3182 3182 3182 3182 3182 3181 3181 3181 3180 3179 3178 3177 3177 3177 3176 3175 3174 3173 3173 3172 3171 3171 3171 3169 3168 3167 3167 3165 3164 3162 3160 3159 3157 3156 3155 3155 3153 3149 3146 3144 3144 3145 3142 3138 3137 3137 3135 3133 3131 3129 3128 3126 3124 3122 3121
3152 3154 3155 3157 3159 3161 3162 3164 3165 3167 3169 3172 3174 3175 3176 3177 3178 3178 3178 3178 3178 3177 3177 3177 3176 3176 3176 3177 3177 3179 3180 3179 3178 3177 3177 3178 3178 3177 3177 3176 3175 3174 3174 3173 3172 3172 3171 3170 3169 3168 3167 3167 3167 3166 3164 3164 3163 3162 3161 3159 3157 3155 3154 3152 3150 3150 3148 3145 3142 3139 3139 3140 3138 3134 3132 3131 3129 3127 3126 3125 3123 3121 3119 3118 3116
3148 3150 3151 3153 3155 3156 3158 3160 3162 3164 3166 3169 3170 3172 3173 3174 3174 3174 3174 3174 3174 3174 3173 3173 3173 3173 3173 3172 3174 3177 3178 3175 3173 3172 3172 3173 3173 3173 3173 3172 3171 3171 3170 3169 3168 3168 3167 3166 3165 3164 3164 3163 3163 3163 3161 3160 3160 3159 3157 3155 3154 3152 3150 3149 3147 3145 3143 3140 3137 3134 3133 3134 3133 3129 3128 3127 3124 3122 3121 3120 3119 3117 3115 3113 3112
3143 3145 3147 3149 3150 3152 3154 3156 3158 3160 3163 3165 3167 3168 3170 3171 3171 3170 3170 3170 3170 3170 3170 3169 3169 3169 3168 3168 3171 3174 3173 3170 3169 3168 3167 3168 3169 3169 3168 3168 3167 3167 3166 3165 3164 3164 3163 3162 3162 3161 3160 3160 3160 3159 3158 3157 3155 3154 3153 3152 3150 3149 3147 3145 3143 3141 3139 3136 3133 3129 3128 3129 3128 3125 3124 3122 3120 3118 3117 3115 3114 3112 3110 3109 3108
3139 3141 3143 3145 3147 3148 3150 3152 3154 3156 3159 3161 3163 3165 3166 3167 3167 3167 3167 3166 3166 3166 3166 3166 3166 3165 3164 3165 3167 3168 3167 3166 3166 3165 3164 3164 3164 3164 3164 3164 3164 3163 3162 3162 3161 3160 3160 3159 3158 3157 3156 3156 3156 3156 3154 3153 3152 3151 3149 3148 3146 3144 3142 3141 3139 3137 3135 3133 3129 3125 3123 3125 3124 3121 3120 3118 3116 3114 3114 3111 3109 3108 3106 3105 3104
3135 3137 3139 3141 3142 3144 3146 3148 3150 3152 3155 3157 3159 3161 3163 3163 3163 3163 3162 3162 3163 3163 3163 3163 3162 3162 3161 3162 3162 3162 3162 3162 3162 3161 3161 3160 3159 3160 3160 3160 3159 3159 3159 3158 3158 3157 3156 3155 3155 3154 3154 3153 3152 3151 3150 3149 3148 3147 3145 3144 3142 3140 3138 3135 3134 3132 3131 3129 3126 3122 3120 3120 3119 3116 3115 3114 3112 3111 3110 3108 3105 3104 3103 3102 3101
3131 3132 3134 3136 3138 3140 3142 3144 3146 3148 3151 3153 3155 3157 3158 3159 3159 3158 3158 3158 3159 3159 3160 3159 3159 3159 3159 3158 3158 3158 3158 3158 3157 3157 3156 3155 3155 3156 3156 3156 3156 3156 3155 3155 3154 3154 3153 3152 3151 3151 3151 3150 3149 3148 3147 3146 3145 3143 3141 3140 3138 3136 3133 3131 3129 3127 3126 3125 3122 3118 3116 3116 3115 3112 3111 3110 3109 3108 3106 3104 3102 3100 3099 3098 3097
3126 3129 3130 3132 3134 3135 3137 3140 3142 3144 3146 3148 3151 3152 3154 3154 3154 3154 3154 3154 3155 3156 3156 3156 3155 3156 3156 3155 3154 3154 3154 3154 3153 3153 3152 3152 3152 3152 3152 3152 3152 3152 3152 3152 3151 3151 3150 3149 3149 3148 3147 3147 3146 3145 3144 3142 3141 3140 3138 3136 3134 3132 3129 3127 3124 3123 3122 3121 3118 3115 3113 3113 3111 3109 3106 3105 3106 3105 3103 3101 3099 3098 3096 3094 3093
3122 3124 3126 3127 3128 3130 3133 3135 3138 3139 3141 3143 3145 3147 3149 3149 3149 3149 3149 3149 3150 3152 3152 3152 3152 3152 3152 3152 3151 3150 3150 3150 3149 3149 3148 3148 3148 3149 3149 3148 3148 3148 3148 3148 3148 3148 3147 3146 3146 3145 3144 3144 3143 3142 3140 3139 3137 3136 3134 3132 3130 3128 3125 3123 3121 3119 3118 3117 3115 3112 3110 3109 3108 3105 3102 3100 3100 3101 3100 3097 3096 3094 3093 3091 3089
Wind_Speed
3 2 2 1 1 1 1 2 2 2 2 3 5 4 4 5 7 7 8 9 9 8 7 8 11 12 12 11 10 10 11 12 13 11 7 5 4 3 4 5 7 7 6 5 4 3 3 3 3 2 2 1 0 1 1 1 2 3 3 5 6 6 6 6 6 6 5 5 5 6 5 5 5 5 5 4 4 3 3 2 2 2 1 1 1
4 3 2 2 2 2 2 2 3 3 3 4 5 5 5 6 7 7 8 9 10 9 9 9 11 11 12 12 10 10 11 12 13 11 6 5 4 3 5 6 7 7 6 6 5 4 4 4 3 3 3 3 2 2 2 1 2 2 2 4 5 5 6 5 5 5 5 5 6 6 6 5 5 5 5 5 4 4 3 3 2 2 3 3 3
4 4 3 3 3 3 2 2 3 3 4 5 5 5 6 6 7 8 9 10 10 10 10 11 12 13 13 12 11 10 11 12 13 10 6 4 4 2 4 6 8 9 7 7 6 5 5 5 4 4 4 4 4 3 3 2 2 1 2 2 3 3 3 3 3 3 3 4 5 5 5 5 5 6 6 5 5 5 5 4 4 3 3 4 5
6 5 5 5 4 4 3 3 3 4 5 6 6 7 7 7 8 8 9 10 11 11 11 12 14 14 15 14 11 10 11 12 11 8 5 2 3 2 3 4 7 10 8 7 6 6 6 6 6 6 5 4 4 4 4 3 3 3 3 2 2 3 4 4 4 4 4 4 4 5 5 5 5 6 6 6 6 6 6 5 5 4 3 4 5
7 6 6 5 5 4 4 4 4 5 6 6 7 8 8 8 8 9 10 11 11 11 12 12 14 15 16 15 13 12 12 12 10 7 5 2 1 2 2 2 4 8 10 8 7 7 8 8 7 6 5 5 5 5 5 5 4 4 4 4 4 4 5 6 6 6 6 5 5 5 5 5 5 6 6 6 6 6 6 6 6 5 4 4 5
7 6 6 5 5 4 4 4 5 5 6 7 7 7 8 8 9 10 11 12 12 12 12 12 13 14 16 15 14 13 13 11 9 6 4 3 1 3 2 2 3 5 9 9 9 10 10 9 7 6 5 6 6 6 7 6 6 6 6 7 7 7 7 7 7 7 7 7 6 6 6 6 6 7 7 6 6 7 7 7 7 7 7 6 5
7 6 6 5 5 5 4 4 5 6 6 7 7 7 8 9 10 11 11 12 12 11 11 12 13 14 16 15 14 14 13 11 9 6 3 2 2 3 3 3 3 4 7 9 11 10 9 9 8 7 6 6 6 8 8 7 6 7 8 8 8 8 9 9 8 8 9 9 9 8 8 7 7 7 8 8 8 8 7 8 8 8 9 8 7
7 7 6 6 6 5 4 4 5 5 6 7 7 8 8 9 9 10 10 10 11 11 10 11 12 14 16 15 14 14 12 10 9 6 3 1 2 3 3 4 4 4 6 9 11 11 9 8 8 8 8 7 8 8 7 6 6 7 9 9 8 9 11 10 10 10 10 11 11 10 10 9 9 8 9 10 9 9 8 8 9 9 10 10 10
7 7 7 7 6 5 4 5 5 5 6 7 8 8 8 8 8 8 9 9 10 11 11 11 11 12 14 14 13 12 10 8 8 7 4 2 3 4 5 4 4 5 6 7 9 10 10 9 9 9 9 9 10 9 7 6 6 7 7 7 8 9 10 10 11 11 11 11 12 12 13 12 11 11 11 12 12 11 10 10 10 11 11 11 11
8 8 8 7 6 5 4 5 6 6 6 7 7 7 6 6 7 8 8 10 10 11 11 11 10 10 10 11 11 10 9 7 6 7 5 2 4 6 6 6 6 6 6 7 8 9 9 10 9 9 8 9 10 9 8 8 7 8 7 6 8 9 9 10 11 11 12 13 14 14 14 14 13 14 14 14 14 14 13 12 12 13 12 12 12
8 8 8 7 6 5 5 6 7 6 6 6 5 5 5 6 7 8 9 10 11 12 12 11 10 9 8 9 8 8 7 7 6 5 5 3 2 5 6 7 7 7 8 8 8 8 9 9 9 9 8 8 9 9 10 10 8 9 8 8 8 8 9 9 9 10 11 12 14 15 16 15 15 15 16 16 16 16 15 14 14 15 15 14 14
9 8 8 7 6 6 6 7 7 6 6 4 3 3 4 6 7 8 10 11 12 12 12 12 11 10 9 8 8 7 7 6 6 5 4 3 2 1 3 5 6 7 9 9 9 9 9 8 8 8 9 9 9 10 11 10 10 10 9 9 9 9 9 10 9 10 11 11 13 15 15 16 16 16 16 16 17 17 16 16 17 17 17 16 15
9 8 8 8 7 7 7 8 7 5 4 1 2 3 5 6 7 8 10 11 11 12 12 12 12 12 11 9 9 8 7 6 5 5 5 5 4 3 3 2 2 4 6 8 10 10 10 9 9 9 9 10 10 11 11 11 11 11 10 9 10 9 10 11 11 12 13 12 13 14 14 15 16 16 16 16 17 17 17 17 18 18 18 18 17
10 8 8 8 8 7 8 8 6 4 2 1 3 4 5 6 7 8 9 10 10 11 11 12 12 12 11 11 10 9 8 8 6 6 6 6 6 5 5 4 2 1 1 3 5 7 9 10 10 11 11 11 11 11 11 10 11 11 11 10 10 10 11 12 12 12 12 12 13 13 13 14 14 15 16 17 18 18 17 18 18 19 19 19 19
10 8 8 8 8 8 8 7 4 3 3 3 4 5 5 6 7 7 8 8 9 10 11 12 12 12 11 11 11 11 10 9 7 7 7 6 6 6 5 5 5 5 4 3 1 2 5 7 9 11 12 12 13 13 12 12 12 12 13 13 13 13 14 14 13 13 11 11 12 12 11 12 13 14 16 17 18 18 18 18 19 20 20 20 20
11 9 8 7 7 8 8 6 4 4 4 5 5 5 5 6 6 6 7 7 8 9 11 12 12 11 11 11 11 11 11 10 8 8 7 7 6 6 6 6 7 7 7 7 5 2 1 4 6 8 9 10 12 13 13 14 14 14 14 14 15 15 16 16 15 15 14 14 14 13 12 13 14 15 15 15 16 17 17 19 20 21 20 20 20
12 9 8 7 7 8 7 5 4 5 6 7 6 6 5 5 5 5 6 7 8 9 11 12 12 12 12 11 11 11 10 9 8 8 8 8 7 7 7 8 8 9 9 8 7 5 2 1 3 5 6 7 8 10 11 12 12 12 13 13 14 13 14 14 14 15 15 15 16 16 15 15 15 16 16 16 16 17 18 19 20 21 21 21 20
12 10 8 8 7 8 8 6 5 7 8 8 7 6 6 5 4 4 5 6 7 9 10 12 13 13 12 12 12 11 10 9 8 7 8 8 9 9 9 10 9 9 9 8 8 7 4 3 4 5 5 6 7 7 8 9 9 10 10 10 11 11 11 11 12 13 13 14 14 15 15 16 16 17 18 18 18 18 19 19 20 20 20 20 21
13 11 9 9 8 9 8 7 7 9 9 8 7 6 5 4 3 3 4 6 7 8 9 12 14 14 14 13 12 11 10 9 8 7 7 7 8 9 9 10 10 9 8 7 6 6 5 5 7 8 8 9 9 8 7 7 8 8 9 9 9 9 10 10 11 12 12 13 13 14 15 15 16 17 17 18 18 19 19 19 20 20 21 21 20
14 12 10 10 9 9 9 8 9 10 10 9 8 6 5 4 3 3 4 5 6 7 9 11 13 13 14 13 12 11 10 8 8 7 7 7 8 9 9 9 9 9 8 6 4 4 5 6 7 8 8 9 10 10 9 8 7 7 8 8 9 9 10 10 11 11 12 12 13 14 14 15 16 17 17 18 18 18 18 19 19 20 20 21 21
16 13 12 11 9 9 9 10 11 11 11 9 8 6 5 4 3 3 3 4 6 7 8 10 12 12 13 14 13 12 11 9 8 7 8 8 8 9 9 9 9 9 8 6 5 4 5 6 7 7 6 7 9 10 10 9 8 7 7 7 7 8 9 9 9 10 10 11 12 13 13 14 15 16 17 17 18 18 18 18 19 20 20 21 21
16 14 13 11 10 10 10 11 12 12 11 10 8 6 5 5 4 2 3 4 6 7 8 10 11 12 13 14 13 13 12 11 8 6 6 7 8 9 10 10 10 9 8 7 6 6 5 5 5 5 5 5 7 9 10 9 9 9 9 8 7 7 8 8 9 10 10 11 12 12 13 13 14 15 16 16 17 17 17 17 18 18 19 20 21
17 15 14 12 11 10 11 12 13 13 12 10 9 7 6 5 3 2 3 4 6 8 9 11 12 13 14 15 14 12 12 11 9 7 5 5 6 8 9 10 10 9 8 6 6 7 6 5 4 3 4 5 6 8 8 7 7 8 9 9 9 9 9 10 10 11 12 13 13 14 14 14 14 15 15 16 16 16 17 17 17 17 18 19 20
18 16 14 13 11 10 12 13 14 13 12 11 10 8 7 6 3 2 3 5 7 8 10 12 14 15 15 15 15 13 12 12 11 9 6 4 5 6 7 8 9 9 8 6 6 7 7 6 5 3 3 4 5 6 6 5 5 5 7 8 9 10 10 11 12 13 14 14 15 15 15 15 16 16 17 17 18 18 18 19 19 19 18 18 19
17 15 13 13 12 11 12 14 15 15 14 13 12 10 8 7 5 3 2 4 6 7 9 11 13 14 14 14 14 14 13 13 12 10 8 6 5 5 6 7 7 8 8 7 6 6 6 7 7 5 4 3 4 5 5 5 5 6 7 8 9 10 10 10 10 11 12 12 13 14 15 16 16 17 18 19 19 20 21 21 22 21 21 21 20
17 16 14 14 14 13 14 15 16 16 16 15 13 12 10 9 7 4 1 3 5 6 7 8 10 12 12 12 12 12 12 13 13 12 10 8 6 6 6 6 6 7 7 7 7 7 7 7 7 7 6 4 4 5 5 6 6 6 7 7 8 8 8 8 9 10 11 11 12 12 13 14 15 16 17 18 19 20 20 21 22 23 23 23 23
19 18 17 17 16 16 16 17 17 17 17 16 15 13 11 10 9 6 2 2 5 6 5 6 7 9 10 10 10 9 10 12 13 12 11 10 8 7 6 6 6 6 6 6 6 7 8 8 7 8 7 6 5 6 6 7 7 7 7 7 7 7 8 9 11 12 13 13 14 14 14 14 15 16 16 17 18 19 20 21 21 22 23 24 24
21 21 20 19 19 18 18 18 19 19 19 18 16 15 13 12 10 8 5 3 5 5 4 4 5 7 7 8 8 8 8 10 11 12 12 10 9 8 7 6 6 5 5 5 5 6 7 7 7 7 7 7 7 7 8 9 10 10 11 10 10 10 11 12 14 14 14 14 15 16 17 18 19 19 20 20 20 20 20 21 22 22 23 24 24
22 22 21 21 20 20 20 20 20 20 20 19 17 16 14 13 11 9 7 5 5 5 3 4 5 6 6 6 7 7 7 8 9 11 12 11 10 9 8 7 7 6 5 5 5 6 6 6 7 7 8 9 9 9 10 11 11 13 14 14 13 13 14 15 15 15 15 16 17 18 20 22 23 24 25 25 25 24 23 22 22 23 24 25 25
23 23 23 23 22 21 21 21 21 20 20 19 18 17 16 13 12 10 8 7 6 5 4 4 5 6 6 6 6 7 8 8 8 10 11 12 11 10 9 9 8 7 7 5 5 6 7 7 7 8 9 11 11 11 12 13 13 14 15 16 15 15 16 16 17 17 18 19 21 22 23 25 26 28 28 29 29 30 29 28 26 25 25 25 25
23 24 24 24 23 23 22 22 22 21 21 20 19 17 16 14 12 10 8 7 7 7 6 7 7 7 7 7 7 8 9 9 9 10 10 11 11 10 9 9 9 9 9 8 6 6 8 8 7 8 10 12 13 13 14 16 16 17 17 17 17 18 18 18 19 20 21 23 24 25 26 28 29 30 31 32 32 33 33 33 32 30 28 27 26
24 25 25 25 24 23 23 23 23 22 22 20 19 17 15 14 13 11 10 9 9 9 9 9 9 8 8 8 8 9 9 10 10 10 10 11 11 11 9 9 9 10 10 10 8 7 9 9 9 10 11 13 14 15 16 18 19 20 20 20 20 20 21 21 22 24 25 26 27 28 29 30 31 33 34 35 36 35 35 34 34 34 33 31 29
25 26 27 26 25 24 24 24 23 23 23 21 20 18 16 14 13 12 12 12 11 12 12 11 10 9 9 9 9 10 11 11 11 11 11 11 11 11 11 10 10 10 11 12 10 9 9 10 11 12 13 13 14 16 18 19 20 21 21 22 23 23 24 25 26 27 29 30 31 32 33 33 34 35 36 37 38 38 37 36 35 34 34 33 32
25 27 27 27 26 25 25 25 25 25 24 23 22 20 18 16 15 15 15 14 14 14 13 12 12 12 11 11 11 11 12 12 12 12 11 11 12 12 12 12 11 11 12 13 13 12 11 12 14 14 14 15 15 17 19 20 21 21 22 23 24 25 27 28 29 30 31 33 34 34 35 36 36 37 37 38 38 37 37 36 35 34 34 33 32
26 27 28 28 28 27 26 26 26 26 25 24 23 22 20 18 17 17 17 16 15 15 15 15 15 14 13 12 12 13 13 13 13 13 12 12 12 12 13 13 13 13 13 14 15 14 14 15 16 16 16 16 17 18 20 21 22 23 23 24 26 27 29 30 31 33 34 35 35 35 36 37 37 38 38 38 37 36 35 34 34 33 33 33 32
27 28 29 30 29 29 28 28 28 27 26 26 25 23 21 20 19 18 17 16 16 16 17 17 17 16 15 14 14 14 15 14 13 14 14 13 13 13 14 14 14 15 15 15 15 16 17 17 17 18 19 19 19 20 21 22 23 24 25 26 28 29 30 31 32 34 35 35 35 36 37 38 38 37 36 35 34 34 33 33 32 32 32 33 33
28 29 30 30 31 30 29 29 28 28 27 26 25 24 22 21 20 18 18 17 17 18 18 19 18 18 17 16 15 16 16 15 14 15 15 15 15 15 15 15 15 16 17 17 17 18 18 18 19 20 21 21 21 21 22 23 24 26 27 28 29 30 30 31 31 33 34 35 36 37 37 38 38 37 36 35 34 33 32 32 32 31 31 32 33
30 30 30 31 32 31 30 29 29 28 27 27 26 25 23 22 21 19 19 18 19 20 20 20 20 19 19 18 17 17 17 16 15 15 16 17 17 16 17 17 16 16 17 18 19 19 20 20 21 21 22 23 23 23 24 25 27 28 30 29 30 31 31 30 30 32 34 35 36 36 36 37 37 38 37 37 36 35 33 32 31 31 31 31 32
32 31 31 32 32 31 31 31 30 29 28 28 27 25 24 23 22 21 20 20 21 22 21 21 21 21 21 20 19 18 18 17 17 17 17 18 18 18 19 19 17 16 18 19 20 20 20 21 21 22 23 24 24 25 26 27 29 31 32 31 31 31 32 32 32 33 35 36 36 36 36 37 37 37 37 37 37 37 36 35 33 31 31 32 32
34 33 33 32 32 31 31 32 31 30 30 30 28 27 25 24 22 21 21 21 22 23 22 22 23 23 22 21 20 19 18 18 18 18 18 19 20 20 20 21 19 18 19 20 21 21 21 22 22 23 25 25 25 26 27 28 30 31 32 33 33 32 32 33 34 36 37 38 38 37 36 37 37 36 36 36 35 36 37 37 35 34 33 33 33
35 35 34 34 33 32 32 33 33 32 32 31 29 28 26 24 22 22 23 24 24 24 24 24 25 24 23 22 21 19 18 19 19 19 20 20 20 20 21 22 22 20 20 22 22 22 22 22 23 24 25 24 25 27 28 29 30 31 32 34 34 34 34 34 34 36 38 40 40 39 37 37 38 37 36 36 35 36 37 36 35 35 35 34 34
37 37 36 36 35 34 34 35 35 34 33 32 30 28 26 24 24 25 25 25 26 26 26 27 27 26 24 22 21 20 19 20 20 20 21 21 20 21 21 23 25 23 23 24 23 22 23 23 24 25 25 25 26 29 29 29 30 31 32 33 34 35 36 37 36 35 38 41 42 41 39 38 39 40 38 36 35 35 35 34 33 34 34 35 35
39 39 38 38 37 36 36 36 36 35 33 31 29 28 27 27 27 27 26 26 27 27 28 28 28 27 26 24 22 20 20 21 21 21 22 22 22 22 22 24 27 26 25 25 24 23 23 24 25 26 27 27 28 30 30 29 30 30 31 33 35 36 37 38 38 37 38 41 43 43 41 39 39 40 38 35 33 33 32 31 31 32 33 34 34
39 40 40 39 39 38 38 38 37 35 33 31 30 30 29 28 28 27 27 27 28 28 29 29 28 28 26 25 23 21 20 23 23 21 21 22 23 24 24 25 28 28 27 27 27 25 24 25 25 26 27 28 28 30 31 31 30 31 32 34 35 36 37 38 40 40 40 41 42 43 42 38 37 37 35 33 32 32 29 28 29 30 30 31 32
39 40 41 40 40 40 40 40 39 37 34 32 31 31 30 29 28 28 28 28 29 30 30 30 30 29 27 26 25 21 20 23 25 21 20 22 24 24 25 26 29 29 28 29 30 28 27 26 26 27 28 28 28 30 32 32 32 32 33 34 35 36 38 39 40 40 40 41 42 43 41 37 35 35 33 31 31 31 28 26 26 27 28 28 29
40 41 41 41 41 41 41 41 40 38 36 34 33 31 30 29 29 29 29 30 31 32 32 32 31 30 30 29 25 21 20 22 24 24 22 22 23 25 26 27 28 29 29 30 31 30 28 28 27 28 29 29 29 30 32 33 33 34 34 35 36 37 38 39 40 40 40 41 41 42 40 36 34 33 31 29 29 29 27 26 26 26 26 26 27
40 40 41 41 42 42 42 42 42 40 37 35 34 32 30 30 30 31 31 32 33 33 33 34 33 32 33 29 21 18 20 22 23 25 26 25 24 26 27 27 28 29 30 32 32 29 28 28 29 29 29 29 29 30 32 33 34 34 35 36 37 38 39 39 39 39 39 39 39 40 39 34 31 31 29 28 28 27 26 26 27 26 26 26 25
39 40 41 42 43 43 42 42 42 41 38 36 35 33 31 31 32 33 34 35 35 34 34 34 35 35 33 26 20 19 21 21 22 25 28 28 27 27 28 28 29 30 31 30 30 28 27 28 30 29 29 30 30 31 32 33 34 34 36 37 38 39 40 40 39 39 38 37 37 38 37 33 30 30 29 27 27 26 25 26 27 26 26 25 25
39 40 41 42 43 43 43 42 42 41 39 37 36 34 32 32 33 35 36 36 36 36 35 36 37 35 29 24 22 23 22 22 24 27 29 29 28 27 28 29 29 29 29 28 28 29 29 29 30 30 30 30 31 32 33 34 34 35 37 38 39 39 39 39 39 39 37 35 35 35 34 31 30 30 29 27 25 25 24 25 25 25 25 25 25
39 40 40 42 43 43 44 43 42 41 40 39 37 35 34 34 35 37 38 38 38 37 36 37 37 34 29 25 25 26 24 23 25 27 28 28 27 27 27 29 30 29 28 27 28 28 28 29 29 30 30 30 31 32 33 34 35 36 38 39 39 38 38 38 38 38 36 33 32 32 31 29 29 29 30 27 24 23 24 24 23 23 24 25 25
40 40 41 42 43 44 44 43 42 42 41 40 39 37 36 36 37 39 40 40 39 37 37 37 36 33 30 27 26 26 25 24 26 27 28 27 27 28 29 30 30 29 28 27 26 26 26 27 29 29 29 30 32 33 34 35 36 37 38 38 37 36 36 37 37 36 34 30 29 30 29 28 28 29 30 30 26 23 22 23 23 22 23 24 24
Wind_Direction
201 203 190 221 291 318 322 341 330 323 332 328 327 330 342 351 348 342 336 338 340 337 329 328 334 336 333 335 342 343 342 345 349 352 7 40 69 133 157 175 199 215 218 218 215 211 222 209 185 188 181 163 42 91 118 150 166 166 172 170 166 168 176 185 189 193 199 200 203 207 212 215 221 229 237 246 249 251 248 239 246 258 277 285 288
210 209 203 222 248 281 291 308 313 318 327 324 324 330 340 344 344 338 332 335 336 331 325 323 326 326 328 332 335 337 338 340 344 342 352 33 55 127 165 177 193 207 219 217 214 219 228 231 220 213 198 193 198 158 148 194 196 177 201 193 183 182 182 185 193 199 204 211 211 212 218 217 218 224 225 231 237 241 241 232 235 258 281 286 283
210 217 225 235 248 267 273 292 306 318 326 323 320 324 334 336 338 334 327 327 328 326 324 322 320 318 322 327 329 331 331 335 339 335 334 19 57 112 172 178 187 199 217 219 212 215 225 234 235 231 222 208 207 197 180 193 198 199 234 212 191 193 188 182 191 203 212 223 224 223 226 221 219 222 219 224 231 237 240 238 236 241 266 286 295
213 227 241 247 254 264 272 294 307 316 321 317 314 318 325 329 331 329 324 324 324 324 322 318 315 314 318 322 325 329 330 334 338 330 318 352 71 103 173 177 184 193 208 219 214 217 228 231 229 230 228 223 223 214 200 197 199 215 239 223 187 190 201 198 195 200 207 215 223 229 232 229 227 226 224 228 237 244 249 253 253 251 257 280 298
218 230 242 251 257 267 284 303 310 316 318 315 314 316 319 322 326 324 323 324 323 322 319 314 313 312 314 318 323 329 331 333 335 326 312 315 96 113 157 173 168 188 202 210 211 217 224 226 227 227 223 224 230 231 221 205 200 215 228 236 233 221 219 213 204 205 212 213 219 230 236 241 242 240 238 238 244 250 258 266 270 273 273 277 289
222 231 241 254 262 276 297 312 316 319 320 318 315 313 316 320 323 324 325 324 322 321 317 313 312 310 313 317 319 322 326 327 329 322 312 296 213 124 128 169 155 182 198 203 212 220 223 225 226 224 228 231 229 235 236 221 215 220 222 233 241 242 246 241 227 223 227 227 225 233 241 247 257 262 259 256 255 258 263 270 277 279 280 280 280
223 234 242 253 263 277 296 312 316 320 322 320 315 315 319 320 324 326 327 325 323 323 319 316 315 313 315 318 314 316 320 320 322 319 310 292 222 145 126 161 168 181 196 200 213 227 232 235 234 232 236 242 240 239 243 239 229 226 227 235 240 243 254 258 255 250 247 243 238 240 248 250 256 267 269 266 264 265 265 269 275 277 279 279 277
224 234 241 249 260 274 291 302 307 316 320 318 319 322 322 321 327 330 331 332 332 334 332 328 325 319 318 317 311 310 314 316 318 318 317 327 182 170 159 165 167 181 200 205 214 226 234 238 244 245 242 246 251 249 254 261 253 243 235 236 242 246 251 255 259 259 253 252 250 249 253 255 256 263 267 269 271 270 266 267 271 273 276 276 277
224 234 241 248 258 273 287 293 298 309 314 315 321 325 325 327 336 343 344 348 351 353 353 347 340 331 323 320 314 309 312 318 317 316 331 53 157 187 194 190 177 181 205 216 221 229 233 234 240 248 248 249 254 257 259 261 261 265 252 236 242 248 250 255 257 254 249 251 255 253 252 254 256 259 259 263 269 271 270 272 274 274 274 275 277
226 236 243 250 258 271 282 285 291 301 308 312 318 325 335 345 357 4 8 13 15 15 13 7 358 348 335 327 325 321 320 328 326 321 343 57 165 197 204 209 199 191 207 222 231 237 238 238 239 243 248 249 254 259 263 262 263 272 268 251 253 257 259 264 262 256 251 251 254 254 251 250 254 260 259 257 260 263 265 271 276 277 278 280 282
230 238 243 251 259 269 277 280 285 296 303 306 316 336 358 13 24 29 31 32 32 30 26 22 14 5 357 345 343 347 341 342 348 345 2 49 155 200 207 216 214 205 211 220 229 239 244 245 245 244 244 247 252 254 258 262 263 266 267 264 265 268 270 273 270 261 256 255 256 257 254 251 252 258 260 259 259 260 262 266 270 274 277 280 283
230 234 241 251 260 267 275 278 283 293 295 300 333 15 30 39 45 44 42 40 36 34 31 29 25 18 12 7 7 12 12 8 12 19 26 43 70 170 216 230 231 226 225 225 226 231 240 248 251 250 246 245 247 248 249 251 252 255 261 268 268 267 267 270 274 270 264 259 256 256 255 251 249 252 256 257 260 261 262 264 265 269 270 271 275
229 232 240 251 257 264 270 274 281 286 282 289 53 59 59 58 57 52 48 44 39 36 33 30 30 26 20 19 22 25 31 34 32 31 32 39 47 36 13 323 259 247 245 240 235 232 234 241 247 251 252 250 250 250 253 254 254 254 255 261 266 265 262 264 269 269 266 263 260 259 255 250 247 249 249 252 257 258 257 259 261 262 263 264 267
231 233 239 246 251 259 266 273 279 271 243 158 103 87 77 69 62 56 52 49 43 39 34 31 31 30 26 23 27 30 33 40 39 32 28 31 39 34 15 12 34 18 284 258 252 243 238 240 245 250 253 254 253 253 258 263 265 267 266 263 261 259 257 259 263 265 263 263 263 261 258 255 254 254 252 251 254 255 254 256 257 258 258 259 262
234 235 238 240 244 253 264 275 274 242 196 149 122 102 87 76 66 58 55 51 45 38 31 28 27 28 27 25 28 32 33 37 37 33 30 26 30 26 6 7 31 43 48 56 44 255 242 243 246 250 253 252 251 252 257 261 263 267 270 270 266 259 256 257 259 263 264 262 262 261 259 259 259 260 259 257 257 259 260 259 259 258 257 258 258
236 236 233 233 240 252 265 272 252 209 177 152 132 111 94 79 68 57 53 51 43 34 27 23 21 22 26 27 29 32 32 35 34 30 30 27 23 17 6 11 29 37 36 47 59 69 217 239 247 251 255 253 251 252 255 257 258 258 260 263 265 264 264 266 265 265 264 262 262 264 262 261 260 261 262 263 263 264 263 261 261 261 260 260 258
235 232 229 231 242 252 262 264 226 193 174 155 137 118 101 84 72 62 55 51 41 32 24 21 21 22 26 28 28 30 30 33 32 25 21 19 14 8 4 9 26 33 28 30 42 50 70 226 255 262 266 264 258 256 257 260 261 261 261 261 264 267 268 270 270 269 267 265 265 267 268 268 268 267 267 266 265 263 262 261 261 261 261 261 259
234 231 230 235 244 250 256 253 215 190 176 158 143 128 113 97 86 75 63 49 38 31 23 23 28 28 28 27 25 26 27 29 31 27 19 12 8 4 0 3 15 29 30 26 25 27 31 10 334 321 314 301 288 276 268 266 266 266 267 268 269 270 270 270 270 270 270 270 270 271 272 272 271 270 269 267 265 264 263 262 262 262 261 260 259
232 229 232 239 245 248 249 239 210 190 177 163 149 135 120 112 103 90 70 47 32 27 21 23 29 31 29 27 20 17 17 18 21 22 19 10 4 360 357 359 5 16 29 30 22 18 7 346 336 330 328 323 315 307 296 282 274 270 271 273 273 272 273 274 276 278 279 279 279 278 277 276 273 271 270 269 268 266 265 264 263 263 263 262 259
227 227 231 238 243 246 242 226 207 191 178 167 157 145 132 129 122 99 70 46 30 23 19 20 26 30 31 28 21 15 7 4 6 8 10 7 1 356 353 356 359 3 13 21 18 6 341 327 324 320 318 319 316 315 313 302 290 282 279 280 281 281 279 279 281 283 285 284 284 283 282 280 279 277 275 274 272 271 270 269 268 267 266 265 263
224 225 228 234 239 241 234 217 203 192 180 170 166 159 148 146 138 107 62 42 30 21 18 18 22 30 35 33 28 23 12 2 355 352 355 357 357 353 351 354 358 359 0 358 351 341 332 327 323 315 310 314 315 315 316 314 310 308 305 301 295 292 291 290 290 288 287 285 284 283 282 281 280 279 278 277 276 276 274 272 271 270 269 268 267
224 225 226 230 234 235 227 213 202 192 181 175 176 176 168 159 147 111 55 39 34 30 25 21 19 26 34 38 39 35 26 15 2 349 345 348 352 355 355 358 1 1 356 345 334 328 327 328 325 312 301 309 313 313 316 322 328 330 329 326 319 313 308 304 302 298 295 293 291 289 286 283 281 279 277 276 276 277 277 276 274 273 271 269 268
224 223 224 226 229 230 222 211 202 192 184 181 187 191 180 168 158 112 66 52 47 41 33 27 22 23 28 32 36 39 37 31 22 10 356 344 347 354 359 2 3 4 357 343 328 322 320 320 316 295 287 305 313 315 319 328 337 338 333 330 325 320 316 312 309 306 303 301 299 298 295 292 288 285 283 282 281 280 280 280 280 278 276 273 270
225 222 223 225 227 228 222 211 202 194 189 189 196 198 185 175 168 122 84 60 47 39 34 31 26 25 26 27 29 31 33 35 34 30 23 6 347 349 355 357 358 1 358 347 329 317 315 313 305 283 275 299 314 319 321 326 332 329 321 316 312 308 305 303 303 303 302 302 302 301 300 298 296 293 292 291 290 288 287 285 283 282 280 278 276
226 223 223 226 227 229 225 214 205 197 194 196 201 202 192 185 180 147 92 48 34 27 27 29 28 27 28 27 26 26 27 29 31 31 29 20 0 348 344 342 343 346 346 344 335 320 310 305 303 299 291 296 310 314 315 314 316 318 315 310 306 304 302 301 301 303 305 307 307 308 307 305 302 300 298 296 294 292 291 289 287 285 282 280 279
223 221 222 225 226 228 224 216 207 199 196 201 205 205 201 196 193 187 150 16 14 13 16 23 27 29 30 29 27 26 26 26 27 25 23 18 6 350 338 330 326 326 324 327 330 325 316 309 305 306 306 301 300 301 297 293 300 317 325 319 311 310 310 312 314 314 313 313 313 313 313 312 311 309 306 303 300 298 294 291 289 287 285 282 280
220 219 219 221 223 223 220 214 207 200 199 205 208 209 209 206 206 209 224 337 351 353 2 14 23 28 28 27 25 23 21 22 23 21 17 13 5 352 340 330 323 317 310 309 317 321 321 320 317 312 309 303 295 292 288 284 286 301 316 315 306 302 301 305 311 312 311 312 314 316 316 316 316 315 314 312 308 304 300 294 290 286 283 281 279
221 219 218 219 219 218 215 211 206 200 202 207 210 212 215 215 215 219 229 285 323 328 342 2 12 20 21 19 20 22 21 19 19 17 14 9 2 354 343 333 329 321 309 303 305 310 312 314 314 307 299 294 288 285 284 284 285 291 299 301 297 293 294 298 304 307 308 310 312 314 315 315 315 316 316 315 313 310 305 300 294 288 283 280 277
223 219 216 216 216 214 211 208 205 202 204 209 211 214 219 221 222 224 233 263 294 300 315 342 349 356 1 1 5 9 12 14 16 15 12 8 0 352 344 335 330 322 313 305 299 297 297 294 296 297 293 289 288 284 282 283 286 288 290 291 292 292 293 297 301 303 305 306 308 309 310 311 312 314 315 315 314 312 309 304 299 293 288 283 279
226 221 216 215 214 211 208 206 205 204 206 210 212 215 220 224 228 230 237 253 267 270 279 303 316 325 331 336 342 348 354 357 2 7 8 6 0 351 342 333 327 320 313 308 293 283 283 281 282 288 291 290 290 288 285 283 282 282 284 285 286 287 288 292 295 298 299 300 302 304 306 307 308 309 311 311 311 310 309 307 303 299 294 288 284
229 223 219 215 213 210 205 204 205 206 208 211 213 216 221 226 231 234 237 243 250 253 263 281 293 302 310 316 321 326 334 339 345 351 355 356 354 347 338 329 322 316 311 309 300 281 282 285 281 279 281 284 287 288 286 284 282 282 283 285 285 284 286 289 292 295 297 298 299 300 300 302 303 304 305 306 306 305 305 304 303 301 299 295 290
231 225 221 217 213 209 205 203 205 207 210 213 215 217 219 224 230 233 234 236 241 250 261 274 284 292 298 302 306 310 316 322 329 335 339 343 342 337 331 322 315 309 302 300 294 279 281 288 283 275 273 276 280 282 281 280 282 284 285 286 286 287 289 292 295 297 298 298 297 296 296 297 298 299 301 302 302 302 300 299 297 297 297 297 295
230 226 222 219 214 210 206 204 205 208 211 214 217 218 218 220 224 229 233 236 243 254 263 270 275 279 286 293 297 300 302 306 313 320 325 328 328 326 322 316 309 301 294 289 283 273 274 280 278 273 273 274 275 276 275 276 279 282 283 284 286 289 292 295 298 299 299 298 297 296 296 295 296 296 297 298 299 300 299 298 296 293 291 291 292
230 225 221 219 215 211 207 205 206 209 212 215 219 220 219 220 224 230 236 242 249 257 261 264 267 271 280 288 292 293 293 294 300 306 312 316 316 315 314 311 307 299 291 286 281 272 265 268 271 272 273 274 273 272 273 275 278 280 282 284 287 291 295 299 300 301 300 299 298 298 297 297 297 297 298 299 299 299 298 298 298 295 292 290 290
229 225 221 218 216 213 208 206 207 209 212 217 221 223 222 224 228 235 242 246 250 253 257 261 264 268 277 285 288 287 286 287 290 293 299 304 305 305 307 306 305 300 292 286 282 276 267 263 267 270 270 269 267 267 270 274 278 280 283 286 290 293 297 299 300 301 300 300 299 298 298 298 298 298 299 299 299 299 299 299 298 297 296 294 291
227 223 220 217 216 214 210 207 208 210 213 217 222 225 227 229 233 239 242 243 244 248 255 260 264 270 278 284 284 282 281 282 284 286 289 294 297 298 301 301 301 299 294 289 284 278 272 267 265 266 267 266 266 266 270 274 278 281 285 288 291 294 296 297 298 299 298 299 299 299 299 299 299 299 299 298 297 297 297 297 297 297 296 294 293
224 222 219 217 216 214 210 208 209 211 213 217 222 226 229 232 236 237 236 237 241 248 255 262 268 274 280 283 281 279 279 281 280 279 282 287 291 293 295 296 296 296 296 294 290 283 278 273 269 266 267 268 269 271 273 276 279 282 286 289 291 292 292 293 294 296 296 296 298 298 299 300 300 300 300 300 299 297 295 294 295 295 294 292 291
222 221 219 217 217 215 211 210 212 214 216 218 221 225 229 233 234 232 231 235 242 249 257 265 271 277 280 280 278 277 279 280 277 275 276 280 285 289 291 293 294 296 296 296 292 286 283 280 278 275 273 273 274 274 276 278 281 283 286 287 288 289 290 289 289 292 294 296 297 298 299 299 299 300 300 301 300 298 296 294 293 292 291 289 288
221 220 219 218 218 216 213 214 216 217 218 220 222 225 228 230 230 229 232 237 245 253 260 266 271 275 277 278 277 276 277 277 273 271 273 276 280 285 287 291 294 296 297 295 291 287 285 284 284 283 282 281 280 278 277 278 281 283 285 285 285 287 289 289 291 294 297 298 299 299 300 300 299 299 299 299 299 297 296 294 292 289 287 285 283
219 220 219 219 219 217 215 217 219 220 221 222 224 226 226 227 228 231 236 243 250 257 263 267 271 273 274 274 275 275 276 273 270 270 272 273 277 281 284 289 293 295 297 295 291 288 286 284 285 285 286 287 287 284 280 279 280 281 284 287 289 289 289 290 295 299 300 300 299 299 300 299 298 298 297 297 296 294 293 292 291 289 285 282 280
218 219 219 220 220 218 217 219 220 222 223 224 226 227 227 228 229 234 241 247 253 259 263 266 269 270 271 273 274 274 273 270 267 266 268 271 276 280 282 287 289 290 292 292 290 288 287 285 284 284 285 287 288 286 282 279 280 282 286 289 292 293 292 292 295 299 300 300 300 299 300 300 299 300 299 298 296 292 290 289 289 287 285 282 279
218 219 219 220 220 218 218 220 221 223 225 225 226 226 227 229 232 237 243 249 254 259 262 265 267 269 270 270 270 270 270 268 266 265 266 269 274 277 279 283 286 286 287 290 291 289 286 284 282 281 282 283 284 283 280 279 281 286 288 290 292 294 294 294 295 298 299 299 299 300 301 303 303 302 302 300 297 293 290 288 287 285 284 282 280
219 220 220 220 221 220 220 222 223 224 224 223 223 225 227 231 235 241 246 251 256 260 262 264 265 266 267 267 266 267 267 265 262 262 263 265 270 274 275 278 283 285 285 287 289 287 285 283 281 280 279 280 280 281 280 281 284 287 289 290 293 294 295 296 297 299 299 299 299 300 302 305 304 303 303 302 298 294 292 290 287 284 282 281 281
220 221 222 222 222 221 221 223 224 224 222 222 224 227 230 235 239 244 249 253 258 262 264 265 265 265 265 264 260 260 261 260 256 254 256 260 263 267 271 275 279 283 283 282 283 282 283 283 281 279 279 279 280 281 281 283 285 286 288 291 293 295 296 298 299 301 302 302 301 302 304 306 305 302 302 302 299 296 295 292 289 286 283 281 280
221 222 223 223 224 223 223 224 225 224 223 223 226 229 232 237 241 247 252 256 260 264 265 265 266 266 264 260 262 268 272 268 264 259 253 253 256 260 265 271 276 280 280 280 282 282 282 282 283 281 280 280 282 282 283 285 287 288 291 294 295 296 298 299 301 303 304 304 304 304 305 307 305 302 301 301 298 297 297 295 291 287 284 282 280
222 223 223 224 225 226 225 225 226 225 224 225 228 231 234 239 244 250 255 258 261 263 265 266 267 267 266 266 274 285 283 273 270 267 259 255 255 256 261 268 274 277 276 277 281 282 279 280 283 283 282 282 283 282 281 284 287 290 293 295 296 297 298 300 302 304 306 306 306 306 306 307 305 301 301 301 298 298 299 297 294 290 287 285 284
225 225 224 224 226 227 227 226 226 226 225 226 229 231 235 240 247 252 256 259 261 262 264 267 269 270 272 276 282 284 278 270 268 267 265 264 263 261 263 268 271 271 271 273 277 279 277 278 282 284 285 285 283 281 280 283 287 291 294 296 297 299 301 303 305 307 307 308 308 306 305 307 306 302 302 302 300 300 301 298 295 293 290 289 287
227 226 225 225 226 227 227 226 227 227 227 227 230 233 237 242 248 253 256 258 259 261 264 267 269 270 275 281 283 280 278 275 269 264 262 264 267 267 267 268 268 267 268 272 275 276 275 276 280 284 287 286 283 282 283 286 291 293 295 297 299 302 305 307 308 309 309 310 308 306 306 309 308 305 305 304 303 303 302 298 296 294 293 292 290
228 228 227 227 227 228 228 227 228 228 228 229 231 234 238 244 249 252 255 256 258 260 263 266 269 270 274 279 280 278 278 276 270 262 259 263 268 271 271 270 268 266 266 269 272 273 274 276 279 283 285 283 282 283 286 290 292 294 296 299 303 306 307 309 309 310 311 311 309 307 308 311 310 308 307 306 305 305 302 298 297 296 295 294 292
230 230 229 229 229 230 230 229 229 229 230 231 233 236 240 245 249 251 253 255 257 259 263 265 267 268 271 275 277 276 276 275 271 264 262 267 273 276 275 271 266 261 261 264 268 270 272 276 279 281 281 280 281 284 288 291 292 295 299 303 306 308 309 310 310 310 311 312 311 309 311 313 313 311 310 308 308 307 304 301 299 297 295 294 292
230 231 230 230 231 231 231 231 230 230 231 232 233 236 241 245 247 248 250 253 256 259 263 265 264 265 269 274 276 274 272 273 272 267 266 270 274 276 275 270 263 258 258 262 267 271 274 277 277 276 276 278 282 286 289 292 294 298 302 305 308 309 310 310 310 310 312 314 313 312 313 316 317 315 313 312 311 310 307 304 302 300 297 295 294